FALCON 9 DEB (53512 NORAD) Tracking and Keplerian Element Data

This shows tracking and keplerian element data for the satellite.

Feedback or suggestion? Click here.




ElementValue
Catalog53512
NameFALCON 9 DEB
Epoch Orbit713
Epoch Day269.64104395
Epoch Year2022
RAAN32.8162
Inclination97.6703
Eccentricity0.0003266
Argument of Perigee248.1977
Mean Anonmoly111.8957
Mean Motion16.08674406
Decay Rate0.00603997
L11 53512U 22099AZ 22269.64104395 .00603997 18936-3 71049-3 0 9999
L22 53512 97.6703 32.8162 0003266 248.1977 111.8957 16.08674406 7132



Live tracking and technical data element details for FALCON 9 DEB (NORAD 53512). FALCON 9 DEB can be tracked NOW for your location showing map with azimuth and elevation plus other details from your city location.







IsCatalogInMostPopularTable: catalog: 53512, numindb: 6
Update: records affected: 1



GetName: 53512 FALCON 9 DEB

Hit Count: updated at: Thu, 08 Dec 2022 08:28:55 GMT